Stations météo

réclame
Mon MeteoGroup
Aelvdalen, Suède (2321): Température de l'air & dewpoint: 13.06.2019 07:00:00 - 19.06.2019 07:00:00 (CEST)Aelvdalen, Suède (2321): Vitesse du vent & gusts: 13.06.2019 07:00:00 - 19.06.2019 07:00:00 (CEST)Aelvdalen, Suède (2321): Direction du vent: 13.06.2019 07:00:00 - 19.06.2019 07:00:00 (CEST)Aelvdalen, Suède (2321): reduced air pressure: 13.06.2019 07:00:00 - 19.06.2019 07:00:00 (CEST)Aelvdalen, Suède (2321): visibility: 13.06.2019 07:00:00 - 19.06.2019 07:00:00 (CEST)Aelvdalen, Suède (2321): Quantités de précipitations: 13.06.2019 07:00:00 - 19.06.2019 07:00:00 (CEST)
Date & Time tt [°C] td [°C] ff [km/h] ff [knt] fx [km/h] fx [knt] dd ppp [hPa] vv [km] rr [mm]
19.06.2019 07:00:00 13,8 10,8 2 1 4 2 NNE 1010,5 43 0,0
19.06.2019 06:00:00 9,0 8,4 0 0 6 3 N 1011,2 30 0,0
19.06.2019 05:00:00 8,3 7,5 2 1 11 6 W 1011,2 37 0,0
19.06.2019 04:00:00 8,7 7,6 5 3 8 4 ESE 1011,0 46 0,0
19.06.2019 03:00:00 9,1 8,0 2 1 10 5 E 1010,8 50 0,0
19.06.2019 02:00:00 10,3 8,9 4 2 8 4 WSW 1010,5 50 0,0
19.06.2019 01:00:00 11,1 8,7 3 2 11 6 SE 1010,6 50 0,0
19.06.2019 00:00:00 15,5 8,5 9 5 25 13 SW 1010,0 50 0,0
18.06.2019 23:00:00 16,0 9,2 5 3 19 10 SSW 1009,7 50 0,0
18.06.2019 22:00:00 17,7 8,5 6 3 25 14 SSW 1009,4 50 0,0
18.06.2019 21:00:00 18,2 10,1 4 2 20 11 S 1009,3 50 0,0
18.06.2019 20:00:00 18,8 9,8 10 6 26 14 SSW 1009,3 50 0,0
18.06.2019 19:00:00 19,2 8,8 14 8 29 16 SW 1009,6 50 0,0
18.06.2019 18:00:00 19,4 9,0 14 7 30 16 SW 1009,9 47 0,0
18.06.2019 17:00:00 19,2 9,9 11 6 31 17 SSW 1010,6 48 0,0
18.06.2019 16:00:00 19,3 10,3 13 7 36 19 SW 1011,0 50 0,0
18.06.2019 15:00:00 18,9 10,2 19 10 31 17 SW 1011,9 37 0,0
18.06.2019 14:00:00 17,2 11,2 13 7 38 21 SSW 1012,8 39 0,0
18.06.2019 13:00:00 18,2 11,0 13 7 31 17 S 1012,6 30 0,0
18.06.2019 12:00:00 17,3 9,0 14 7 29 16 S 1012,8 50 0,0
18.06.2019 11:00:00 17,7 9,6 10 5 - - SW 1012,8 49 0,0
18.06.2019 10:00:00 16,9 9,6 11 6 27 15 SW 1013,0 47 0,0
18.06.2019 09:00:00 16,2 9,6 11 6 23 12 SW 1013,2 45 0,0
18.06.2019 08:00:00 14,5 9,1 6 4 16 8 SSW 1013,4 47 0,0
18.06.2019 07:00:00 14,0 9,4 7 4 17 9 SW 1013,5 46 0,0
18.06.2019 06:00:00 13,4 9,3 5 3 12 7 S 1013,7 47 0,0
18.06.2019 05:00:00 13,3 9,4 3 1 10 6 SSW 1013,6 50 0,0
18.06.2019 04:00:00 13,2 9,3 5 3 16 9 SSW 1013,8 50 0,0
18.06.2019 03:00:00 13,2 9,1 9 5 23 12 WSW 1013,6 50 0,0
18.06.2019 02:00:00 12,3 9,3 6 4 15 8 SE 1013,5 50 0,0
18.06.2019 01:00:00 11,8 8,6 6 3 11 6 ESE 1013,3 50 0,0
18.06.2019 00:00:00 15,2 9,1 4 2 21 11 SSW 1012,9 50 0,0
17.06.2019 23:00:00 16,7 9,1 9 5 24 13 SW 1012,4 50 0,0
17.06.2019 22:00:00 17,9 8,7 13 7 34 18 WSW 1011,8 50 0,0
17.06.2019 21:00:00 19,7 8,1 10 5 30 16 WSW 1011,1 50 0,0
17.06.2019 20:00:00 20,7 7,7 16 9 31 17 SW 1011,0 45 0,0
17.06.2019 19:00:00 21,8 7,6 15 8 29 16 WSW 1010,7 45 0,0
17.06.2019 18:00:00 22,6 7,2 15 8 32 18 WSW 1010,7 47 0,0
17.06.2019 17:00:00 22,3 8,0 13 7 34 18 WSW 1010,9 50 0,0
17.06.2019 16:00:00 21,9 8,4 19 10 31 17 W 1011,2 50 0,0
17.06.2019 15:00:00 20,7 10,2 14 8 29 16 WSW 1011,7 34 0,0
17.06.2019 14:00:00 20,0 11,0 18 10 35 19 SW 1011,8 40 0,0
17.06.2019 13:00:00 19,8 11,6 14 8 30 16 SW 1011,7 34 0,0
17.06.2019 12:00:00 20,1 11,8 14 8 31 17 WSW 1011,6 42 0,0
17.06.2019 11:00:00 18,2 11,5 15 8 27 15 W 1011,9 39 0,0
17.06.2019 10:00:00 16,6 11,1 14 8 27 14 SW 1012,2 42 0,0
17.06.2019 09:00:00 17,8 12,0 12 6 21 11 SW 1011,7 40 0,0
17.06.2019 08:00:00 16,9 12,4 6 4 14 7 SW 1011,8 48 0,0
17.06.2019 07:00:00 16,0 12,4 7 4 12 7 SW 1012,1 41 0,0
17.06.2019 06:00:00 15,1 12,2 4 2 9 5 SSW 1012,3 50 0,0
17.06.2019 05:00:00 14,9 12,2 4 2 12 7 S 1012,3 50 0,0
17.06.2019 04:00:00 15,1 12,2 4 2 11 6 S 1012,6 50 0,0
17.06.2019 03:00:00 15,0 12,3 4 2 15 8 SSW 1012,8 50 0,0
17.06.2019 02:00:00 16,0 12,6 8 5 20 11 WSW 1012,6 50 0,0
17.06.2019 01:00:00 16,4 13,1 6 4 14 8 SW 1012,5 50 0,0
17.06.2019 00:00:00 17,7 13,4 8 4 13 7 SW 1012,3 50 0,0
16.06.2019 23:00:00 18,2 13,1 6 3 21 11 SW 1012,2 50 0,0
16.06.2019 22:00:00 19,2 12,0 10 6 24 13 WSW 1011,9 50 0,0
16.06.2019 21:00:00 21,0 12,2 9 5 24 13 WSW 1011,7 49 0,0
16.06.2019 20:00:00 22,1 11,8 10 6 20 11 SSW 1011,5 50 0,0
16.06.2019 19:00:00 22,0 11,7 6 3 19 10 SSW 1011,8 50 0,0
16.06.2019 18:00:00 22,3 12,8 3 2 11 6 W 1012,1 49 0,0
16.06.2019 17:00:00 21,5 11,2 3 2 13 7 SSE 1012,7 50 0,0
16.06.2019 16:00:00 21,6 9,2 4 2 12 6 SSW 1013,0 50 0,0
16.06.2019 15:00:00 21,3 9,8 4 2 10 5 SSE 1013,1 50 0,0
16.06.2019 14:00:00 21,3 8,9 5 3 15 8 S 1013,1 50 0,0
16.06.2019 13:00:00 20,9 12,3 9 5 28 15 SW 1013,3 50 0,0
16.06.2019 12:00:00 22,7 11,1 10 5 19 10 SSE 1012,4 22 0,0
16.06.2019 11:00:00 23,2 12,8 6 4 16 9 S 1012,8 19 0,0
16.06.2019 10:00:00 21,4 14,3 2 1 8 4 NW 1013,3 38 0,0
16.06.2019 09:00:00 19,2 13,1 2 1 7 4 NE 1014,0 41 0,0
16.06.2019 08:00:00 17,5 12,0 3 1 5 3 SW 1014,4 50 0,0
16.06.2019 07:00:00 15,7 11,1 0 0 5 3 N 1014,7 50 0,0
16.06.2019 06:00:00 12,7 9,7 0 0 3 2 N 1015,2 50 0,0
16.06.2019 05:00:00 9,8 8,9 0 0 3 1 N 1015,7 50 0,0
16.06.2019 04:00:00 8,7 8,3 0 0 - - N 1015,8 44 0,0
16.06.2019 03:00:00 10,2 9,3 0 0 2 1 N 1016,0 50 0,0
16.06.2019 02:00:00 11,2 10,1 0 0 6 3 N 1016,0 50 0,0
16.06.2019 01:00:00 14,8 9,6 3 1 16 9 NNW 1015,4 50 0,0
16.06.2019 00:00:00 16,6 9,5 2 1 11 6 NE 1015,0 50 0,0
15.06.2019 23:00:00 19,2 11,5 2 1 13 7 NNW 1015,0 50 0,0
15.06.2019 22:00:00 20,4 11,1 9 5 - - E 1014,4 50 0,0
15.06.2019 21:00:00 21,2 11,2 6 3 19 11 ENE 1013,9 50 0,0
15.06.2019 20:00:00 22,4 9,9 9 5 22 12 E 1013,4 50 0,0
15.06.2019 19:00:00 24,4 8,4 5 3 13 7 S 1013,3 39 0,0
15.06.2019 18:00:00 23,0 11,1 7 4 10 6 ESE 1013,9 50 0,0
15.06.2019 17:00:00 23,3 9,3 3 2 14 7 SSE 1014,4 48 0,0
15.06.2019 16:00:00 25,2 9,1 8 4 18 10 WSW 1014,3 45 0,0
15.06.2019 15:00:00 24,6 10,8 5 3 20 11 NNE 1014,7 48 0,0
15.06.2019 14:00:00 24,7 10,6 4 2 18 10 WNW 1015,3 29 0,0
15.06.2019 13:00:00 23,6 11,0 4 2 16 8 NNW 1015,9 41 0,0
15.06.2019 12:00:00 22,1 9,6 5 3 18 10 WSW 1016,3 41 0,0
15.06.2019 11:00:00 21,4 9,9 7 4 18 10 W 1016,4 45 0,0
15.06.2019 10:00:00 20,1 10,2 9 5 - - W 1016,8 37 0,0
15.06.2019 09:00:00 18,4 10,2 12 7 19 10 W 1017,3 46 0,0
15.06.2019 08:00:00 16,8 11,1 4 2 12 7 N 1017,4 49 0,0
15.06.2019 07:00:00 14,3 10,7 0 0 8 4 N 1017,9 50 0,0
15.06.2019 06:00:00 10,7 9,0 3 2 - - ENE 1018,6 43 0,0
15.06.2019 05:00:00 7,9 7,6 3 2 5 3 NNW 1018,9 19 0,0
15.06.2019 04:00:00 7,5 7,1 4 2 16 9 WNW 1019,0 24 0,0
15.06.2019 03:00:00 7,2 6,9 3 1 8 4 NNE 1018,7 13 0,0
15.06.2019 02:00:00 7,6 7,2 4 2 10 5 E 1019,2 12 0,0
15.06.2019 01:00:00 8,9 8,3 0 0 4 2 N 1018,8 19 0,0
15.06.2019 00:00:00 10,0 8,6 0 0 6 3 N 1018,2 50 0,0
14.06.2019 23:00:00 13,3 9,7 3 2 10 5 N 1017,5 50 0,0
14.06.2019 22:00:00 17,1 9,5 5 3 14 7 SW 1016,9 44 0,0
14.06.2019 21:00:00 19,1 9,8 6 3 22 12 WSW 1016,4 48 0,0
14.06.2019 20:00:00 20,2 8,8 12 7 23 13 WSW 1016,1 49 0,0
14.06.2019 19:00:00 21,2 7,8 12 6 29 16 W 1016,0 45 0,0
14.06.2019 18:00:00 21,1 7,0 11 6 - - SW 1015,8 50 0,0
14.06.2019 17:00:00 21,3 6,8 11 6 25 13 W 1016,0 38 0,0
14.06.2019 16:00:00 20,1 10,5 10 5 29 15 SW 1016,5 47 0,0
14.06.2019 15:00:00 19,1 9,0 9 5 16 9 NW 1016,9 50 0,0
14.06.2019 14:00:00 20,0 9,8 6 4 20 11 SW 1017,3 39 0,0
14.06.2019 13:00:00 18,5 10,8 9 5 25 13 WNW 1017,6 40 0,0
14.06.2019 12:00:00 18,3 11,4 10 5 20 11 W 1017,5 40 0,0
14.06.2019 11:00:00 16,6 11,1 9 5 19 10 W 1018,0 39 0,0
14.06.2019 10:00:00 14,6 10,4 10 5 17 9 W 1018,2 50 0,0
14.06.2019 09:00:00 14,6 10,4 5 3 11 6 W 1018,0 42 0,0
14.06.2019 08:00:00 13,1 9,9 6 4 11 6 N 1017,8 43 0,0
14.06.2019 07:00:00 12,0 10,1 7 4 11 6 NNW 1017,9 46 0,0
14.06.2019 06:00:00 10,8 9,9 3 2 14 8 NNW 1018,0 50 0,0
14.06.2019 05:00:00 10,1 8,9 7 4 14 8 NW 1018,0 50 0,0
14.06.2019 04:00:00 9,8 9,0 4 2 7 4 NNW 1017,8 50 0,0
14.06.2019 03:00:00 9,5 9,0 0 0 5 3 N 1018,3 50 0,0
14.06.2019 02:00:00 9,5 9,2 0 0 9 5 N 1018,5 32 0,0
14.06.2019 01:00:00 9,6 9,3 3 1 7 4 W 1018,2 28 0,0
14.06.2019 00:00:00 10,3 10,0 2 1 6 3 NNW 1017,6 41 0,0
13.06.2019 23:00:00 10,7 10,2 0 0 - - N 1017,7 33 0,0
13.06.2019 22:00:00 10,8 10,3 2 1 4 2 NW 1016,9 50 0,0
13.06.2019 21:00:00 10,9 10,3 0 0 3 2 N 1016,4 12 0,0
13.06.2019 20:00:00 10,9 10,1 0 0 5 3 N 1016,2 23 0,0
13.06.2019 19:00:00 10,9 9,8 3 2 8 4 E 1015,7 4,5 0,0
13.06.2019 18:00:00 10,9 9,7 4 2 11 6 E 1015,6 43 0,0
13.06.2019 17:00:00 10,8 9,7 5 3 10 5 ENE 1015,3 43 0,0
13.06.2019 16:00:00 10,1 9,5 4 2 9 5 ENE 1015,1 9 0,0
13.06.2019 15:00:00 9,6 9,1 5 3 17 9 E 1014,9 9 0,2
13.06.2019 14:00:00 9,4 8,6 9 5 21 11 ESE 1015,1 7 0,1
13.06.2019 13:00:00 9,7 8,6 7 4 13 7 E 1014,9 22 0,0
13.06.2019 12:00:00 9,5 8,3 6 3 17 9 E 1014,4 50 0,0
13.06.2019 11:00:00 9,4 8,0 10 6 21 12 E 1013,7 50 0,0
13.06.2019 10:00:00 9,3 8,1 7 4 16 9 E 1014,1 50 0,8
13.06.2019 09:00:00 8,9 7,5 0 0 26 14 N 1014,6 2,4 2,3
13.06.2019 08:00:00 8,9 7,7 12 7 27 15 E 1013,7 31 4,1
13.06.2019 07:00:00 9,0 7,0 6 4 20 11 ESE 1016,4 8 1,4

tt = Température de l'air
td = dewpoint
ff = Vitesse du vent
fx = gusts
dd = Direction du vent
ppp = reduced air pressure
vv = visibility
rr = Quantités de précipitations

stations d'obs. à proximité